Yamba Observation History
Time Wind Speed Temp Pressure Rel. Hum Rain
03/02:30pm NNE 10-17 kts 28.5°c 1008.6 hPa 74% 0.0mm
03/02:00pm NNE 9-15 kts 28.8°c 1008.9 hPa 75% 0.0mm
03/01:30pm NNE 10-16 kts 28.5°c 1009.5 hPa 73% 0.0mm
03/01:00pm NNE 8-14 kts 28.9°c 1010.0 hPa 76% 0.0mm
03/12:30pm NNE 6-12 kts 28.2°c 1010.6 hPa 73% 0.0mm
03/12:00pm NNE 6-9 kts 27.9°c 1011.3 hPa 75% 0.0mm
03/11:30am NNE 5-8 kts 27.0°c 1011.5 hPa 70% 0.0mm
03/11:00am N 4-6 kts 26.8°c 1011.8 hPa 74% 0.0mm
03/10:30am N 4-6 kts 26.8°c 1011.9 hPa 75% 0.0mm
03/10:00am N 4-6 kts 26.1°c 1011.8 hPa 78% 0.0mm
03/09:30am NNW 2-5 kts 25.4°c 1012.1 hPa 80% 0.0mm
03/09:00am N 3-6 kts 24.3°c 1012.1 hPa 85% 0.2mm
03/08:30am N 3-5 kts 23.0°c 1012.1 hPa 90% 0.2mm
03/08:00am NNW 4-7 kts 21.5°c 1011.8 hPa 91% 0.2mm
03/07:30am N 4-5 kts 21.0°c 1011.6 hPa 93% 0.2mm
03/07:00am NNW 5-8 kts 21.1°c 1011.7 hPa 93% 0.2mm
03/06:30am NNW 7-8 kts 21.0°c 1011.4 hPa 94% 0.2mm
03/06:00am NNW 7-9 kts 20.9°c 1011.3 hPa 95% 0.2mm
03/05:30am NNW 5-7 kts 21.0°c 1011.4 hPa 95% 0.2mm
03/05:00am NNW 5-7 kts 21.2°c 1011.7 hPa 95% 0.2mm
03/04:30am N 5-8 kts 21.4°c 1011.4 hPa 95% 0.2mm
03/04:00am N 5-8 kts 21.5°c 1011.6 hPa 93% 0.2mm
03/03:30am N 6-9 kts 21.8°c 1012.0 hPa 93% 0.2mm
03/03:00am N 5-7 kts 21.7°c 1012.1 hPa 93% 0.2mm
03/02:30am NNW 5-8 kts 21.9°c 1012.4 hPa 93% 0.2mm
03/02:00am N 7-9 kts 22.2°c 1012.6 hPa 93% 0.2mm
03/01:30am N 5-8 kts 22.2°c 1012.8 hPa 93% 0.2mm
03/01:00am N 6-9 kts 22.4°c 1013.1 hPa 94% 0.2mm
03/12:30am N 5-9 kts 22.3°c 1013.0 hPa 93% 0.2mm
03/12:00am N 6-8 kts 22.4°c 1013.4 hPa 92% 0.2mm
Time Wind Speed Temp Pressure Rel. Hum Rain
02/11:30pm N 5-8 kts 22.5°c 1013.9 hPa 90% 0.2mm
02/11:00pm NNW 7-10 kts 23.0°c 1014.1 hPa 88% 0.2mm
02/10:30pm N 5-11 kts 23.2°c 1014.1 hPa 86% 0.2mm
02/10:00pm NNE 7-14 kts 23.5°c 1013.9 hPa 86% 0.2mm
02/09:30pm NNE 5-11 kts 23.6°c 1014.2 hPa 88% 0.2mm
02/09:00pm NNE 6-11 kts 23.3°c 1014.2 hPa 84% 0.2mm
02/08:30pm NNE 8-16 kts 23.6°c 1013.8 hPa 83% 0.2mm
02/08:00pm NNE 8-14 kts 23.4°c 1013.7 hPa 81% 0.2mm
02/07:30pm NNE 8-14 kts 23.4°c 1013.9 hPa 84% 0.2mm
02/07:00pm NNE 7-12 kts 23.4°c 1014.0 hPa 84% 0.2mm
02/06:30pm NNE 8-13 kts 23.4°c 1013.9 hPa 80% 0.2mm
02/06:00pm ENE 9-14 kts 23.4°c 1013.8 hPa 80% 0.2mm
02/05:30pm ENE 8-13 kts 23.6°c 1013.8 hPa 78% 0.2mm
02/05:00pm NE 7-15 kts 24.3°c 1014.0 hPa 79% 0.2mm
02/04:30pm NE 8-14 kts 24.4°c 1013.9 hPa 82% 0.2mm
02/04:00pm E 8-13 kts 24.4°c 1014.1 hPa 78% 0.2mm
02/03:30pm ESE 7-11 kts 23.8°c 1014.1 hPa 80% 0.2mm
02/03:00pm E 7-10 kts 23.7°c 1014.4 hPa 83% 0.2mm
02/02:30pm E 7-11 kts 23.5°c 1014.7 hPa 84% 0.2mm
02/02:00pm E 5-8 kts 23.8°c 1015.2 hPa 79% 0.2mm
02/01:30pm ESE 7-11 kts 24.2°c 1015.4 hPa 79% 0.2mm
02/01:00pm ESE 6-13 kts 24.6°c 1015.5 hPa 82% 0.2mm
02/12:30pm ESE 6-10 kts 24.0°c 1015.8 hPa 84% 0.2mm
02/12:00pm ESE 5-6 kts 24.0°c 1016.4 hPa 84% 0.2mm
02/11:30am SSW 5-6 kts 23.0°c 1016.7 hPa 82% 0.2mm
02/11:00am WSW 4-6 kts 22.7°c 1016.9 hPa 91% 0.2mm
02/10:30am W 5-6 kts 22.7°c 1017.0 hPa 92% 0.2mm
02/10:00am W 4-6 kts 22.9°c 1017.0 hPa 93% 0.2mm
02/09:30am SW 6-8 kts 21.1°c 1017.0 hPa 97% 0.2mm
02/09:00am WSW 5-6 kts 20.3°c 1017.2 hPa 99% 4.8mm
02/08:30am W 6-8 kts 20.0°c 1017.1 hPa 98% 2.6mm
02/08:00am NW 5-6 kts 20.1°c 1017.2 hPa 98% 2.6mm
02/07:30am SW 6-9 kts 19.3°c 1017.0 hPa 98% 2.6mm
02/07:00am W 6-9 kts 19.0°c 1016.8 hPa 98% 0.0mm
02/06:30am WSW 6-8 kts 19.2°c 1016.8 hPa 97% 0.0mm
02/06:00am W 6-8 kts 19.3°c 1016.5 hPa 97% 0.0mm
02/05:30am WSW 5-7 kts 19.5°c 1016.4 hPa 97% 0.0mm
02/05:00am SW 6-8 kts 19.6°c 1016.2 hPa 97% 0.0mm
02/04:30am WSW 6-8 kts 19.4°c 1016.1 hPa 96% 0.0mm
02/04:00am WSW 5-8 kts 19.4°c 1016.5 hPa 96% 0.0mm
02/03:30am W 6-7 kts 19.5°c 1016.7 hPa 96% 0.0mm
02/03:00am WSW 6-7 kts 19.9°c 1017.0 hPa 95% 0.0mm
02/02:30am WSW 6-8 kts 20.0°c 1017.2 hPa 94% 0.0mm
02/02:00am WSW 5-6 kts 20.1°c 1017.6 hPa 93% 0.0mm
02/01:30am SW 6-8 kts 20.5°c 1017.7 hPa 94% 0.0mm
02/01:00am SW 6-7 kts 20.9°c 1017.8 hPa 93% 0.0mm
02/12:30am SW 5-7 kts 21.1°c 1018.0 hPa 91% 0.0mm
02/12:00am WSW 4-6 kts 21.6°c 1018.2 hPa 86% 0.0mm
Time Wind Speed Temp Pressure Rel. Hum Rain
01/11:30pm E 4-7 kts 23.6°c 1018.1 hPa 75% 0.0mm
01/11:00pm ESE 6-8 kts 23.9°c 1018.2 hPa 76% 0.0mm
01/10:30pm ESE 5-7 kts 23.9°c 1018.3 hPa 77% 0.0mm
01/10:00pm ESE 6-8 kts 23.9°c 1018.5 hPa 76% 0.0mm
01/09:30pm ESE 6-8 kts 23.9°c 1018.4 hPa 76% 0.0mm
01/09:00pm ESE 7-9 kts 24.0°c 1018.1 hPa 75% 0.0mm
01/08:30pm ESE 7-9 kts 24.2°c 1017.8 hPa 77% 0.0mm
01/08:00pm ESE 8-11 kts 24.0°c 1017.7 hPa 76% 0.0mm
01/07:30pm ESE 7-11 kts 23.9°c 1017.4 hPa 75% 0.0mm
01/07:00pm SE 8-11 kts 24.0°c 1017.3 hPa 73% 0.0mm
01/06:30pm SE 8-11 kts 24.0°c 1017.2 hPa 74% 0.0mm
01/06:00pm SE 9-13 kts 24.2°c 1017.0 hPa 75% 0.0mm
01/05:30pm SE 8-13 kts 24.4°c 1017.0 hPa 75% 0.0mm
01/05:00pm SE 9-13 kts 24.9°c 1016.6 hPa 72% 0.0mm
01/04:30pm SE 10-14 kts 25.9°c 1016.5 hPa 69% 0.0mm
01/04:00pm SSE 10-13 kts 26.2°c 1016.4 hPa 73% 0.0mm
01/03:30pm SSE 10-13 kts 26.0°c 1016.5 hPa 74% 0.0mm
01/03:00pm SSE 13-17 kts 25.7°c 1016.6 hPa 71% 0.0mm
01/02:30pm SSE 13-17 kts 25.0°c 1016.9 hPa 72% 0.0mm
01/02:00pm SSE 12-16 kts 26.3°c 1017.3 hPa 76% 0.0mm
01/01:30pm SSE 11-17 kts 26.2°c 1017.6 hPa 73% 0.0mm
01/01:00pm S 9-14 kts 25.5°c 1017.8 hPa 74% 0.0mm
01/12:30pm S 8-13 kts 24.9°c 1018.1 hPa 79% 0.0mm
01/12:00pm SSE 6-8 kts 23.7°c 1018.6 hPa 82% 0.0mm
01/11:30am S 8-12 kts 22.5°c 1018.8 hPa 78% 0.0mm
01/11:00am SSE 9-13 kts 24.8°c 1019.0 hPa 74% 0.0mm
01/10:30am SSW 6-9 kts 24.6°c 1018.8 hPa 77% 0.0mm
01/10:00am SSW 7-11 kts 24.2°c 1018.8 hPa 79% 0.0mm
01/09:30am SSW 6-9 kts 23.5°c 1018.6 hPa 80% 0.0mm
01/09:00am WSW 5-7 kts 22.0°c 1018.8 hPa 86% 0.0mm
01/08:30am W 4-6 kts 20.7°c 1018.5 hPa 91% 0.0mm
01/08:00am W 5-7 kts 19.7°c 1018.2 hPa 94% 0.0mm
01/07:30am WSW 4-7 kts 19.0°c 1017.8 hPa 96% 0.0mm
01/07:00am W 5-8 kts 19.1°c 1017.7 hPa 96% 0.0mm
01/06:30am WSW 4-5 kts 19.6°c 1017.3 hPa 96% 0.0mm
01/06:00am SW 5-7 kts 19.7°c 1017.1 hPa 96% 0.0mm
01/05:30am SW 5-8 kts 19.8°c 1016.9 hPa 96% 0.0mm
01/05:00am SW 5-8 kts 20.0°c 1016.6 hPa 96% 0.0mm
01/04:30am SW 5-8 kts 19.9°c 1016.4 hPa 96% 0.0mm
01/04:00am WSW 4-8 kts 19.9°c 1016.4 hPa 97% 0.0mm
01/03:30am WSW 5-6 kts 20.0°c 1016.4 hPa 97% 0.0mm
01/03:00am WSW 5-7 kts 20.1°c 1016.4 hPa 96% 0.0mm
01/02:30am WSW 5-7 kts 20.2°c 1016.6 hPa 96% 0.0mm
01/02:00am WSW 5-7 kts 20.5°c 1016.7 hPa 95% 0.0mm
01/01:30am WSW 5-6 kts 21.0°c 1016.9 hPa 94% 0.0mm
01/01:00am SW 5-6 kts 21.4°c 1017.0 hPa 93% 0.0mm
01/12:30am WSW 5-7 kts 21.7°c 1016.9 hPa 93% 0.0mm
01/12:00am SW 4-8 kts 22.6°c 1017.0 hPa 86% 0.0mm